SCP
0 0 0 0 0 0 0 0 0 0 0 0 0 0 0 0 0 0 0 0 0 0 0 0 0 0 0 0 0 0 0 0 0 0 0 0 0 0 0 0 0 0 0
0 0 0 0 0 0 0 0 0 0 0 0 0 0 0 0 0 0 0 0 0 0 0 0 0 0 0 0 0 0 0 0 0 0 0 0 0 0 0 0 0 0 0
0 0 0 0 0 0 0 0 0 0 0 0 0 0 0 0 0 0 0 0 0 0 0 0 0 0 0 0 0 0 0 0 0 0 0 0 0 0 0 0 0 0 0
0 0 0 0 0 0 0 0 0 0 0 0 0 0 0 0 0 0 0 0 0 0 0 0 0 0 0 0 0 0 0 0 0 0 0 0 0 0 0 0 0 0 0
0 0 0 0 0 0 0 0 0 0 0 0 0 0 0 0 0 0 0 0 0 0 0 0 0 0 0 0 0 0 0 0 0 0 0 0 0 0 0 0 0 0 0
0 0 0 0 0 0 0 0 0 0 0 0 0 0 0 0 0 0 0 0 0 0 0 0 0 0 0 0 0 0 0 0 0 0 0 0 0 0 0 0 0 0 0
0 0 0 0 0 0 0 0 0 0 0 0 0 0 0 0 0 0 0 0 0 0 0 0 0 0 0 0 0 0 0 0 0 0 0 0 0 0 0 0 0 0 0
0 0 0 0 0 0 0 0 0 0 0 0 0 0 0 0 0 0 0 0 0 0 0 0 0 0 0 0 0 0 0 0 0 0 0 0 0 0 0 0 0 0 0
0 0 0 0 0 0 0 0 0 0 0 0 0 0 0 0 0 0 0 0 0 0 0 0 0 0 0 0 0 0 0 0 0 0 0 0 0 0 0 0 0 0 0
0 0 0 0 0 0 0 0 0 0 0 0 0 0 0 0 0 0 0 0 0 0 0 0 0 0 0 0 0 0 0 0 0 0 0 0 0 0 0 0 0 0 0
0 0 0 0 0 0 0 0 0 0 0 0 0 0 0 0 0 0 0 0 0 0 0 0 0 0 0 0 0 0 0 0 0 0 0 0 0 0 0 0 0 0 0
0 0 0 0 0 0 0 0 0 0 0 0 0 0 0 0 0 0 0 0 0 0 0 0 0 0 0 0 0 0 0 0 0 0 0 0 0 0 0 0 0 0 0
0 0 0 0 0 0 0 0 0 0 0 0 0 0 0 0 0 0 0 0 0 0 0 0 0 0 0 0 0 0 0 0 0 0 0 0 0 0 0 0 0 0 0
0 0 0 0 0 0 0 0 0 0 0 0 0 0 0 0 0 0 0 0 0 0 0 0 0 0 0 0 0 0 0 0 0 0 0 0 0 0 0 0 0 0 0
0 0 0 0 0 0 0 0 0 0 0 0 0 0 0 0 0 0 0 0 0 0 0 0 0 0 0 0 0 0 0 0 0 0 0 0 0 0 0 0 0 0 0
0 0 0 0 0 0 0 0 0 0 0 0 0 0 0 0 0 0 0 0 0 0 0 0 0 0 0 0 0 0 0 0 0 0 0 0 0 0 0 0 0 0 0
0 0 0 0 0 0 0 0 0 0 0 0 0 0 0 0 0 0 0 0 0 0 0 0 0 0 0 0 0 0 0 0 0 0 0 0 0 0 0 0 0 0 0
0 0 0 0 0 0 0 0 0 0 0 0 0 0 0 0 0 0 0 0 0 0 0 0 0 0 0 0 0 0 0 0 0 0 0 0 0 0 0 0 0 0 0
0 0 0 0 0 0 0 0 0 0 0 0 0 0 0 0 0 0 0 0 0 0 0 0 0 0 0 0 0 0 0 0 0 0 0 0 0 0 0 0 0 0 0
0 0 0 0 0 0 0 0 0 0 0 0 0 0 0 0 0 0 0 0 0 0 0 0 0 0 0 0 0 0 0 0 0 0 0 0 0 0 0 0 0 0 0
0 0 0 0 0 0 0 0 0 0 0 0 0 0 0 0 0 0 0 0 0 0 0 0 0 0 0 0 0 0 0 0 0 0 0 0 0 0 0 0 0 0 0
0 0 0 0 0 0 0 0 0 0 0 0 0 0 0 0 0 0 0 0 0 0 0 0 0 0 0 0 0 0 0 0 0 0 0 0 0 0 0 0 0 0 0
0 0 0 0 0 0 0 0 0 0 0 0 0 0 0 0 0 0 0 0 0 0 0 0 0 0 0 0 0 0 0 0 0 0 0 0 0 0 0 0 0 0 0
0 0 0 0 0 0 0 0 0 0 0 0 0 0 0 0 0 0 0 0 0 0 0 0 0 0 0 0 0 0 0 0 0 0 0 0 0 0 0 0 0 0 0
0 0 0 0 0 0 0 0 0 0 0 0 0 0 0 0 0 0 0 0 0 0 0 0 0 0 0 0 0 0 0 0 0 0 0 0 0 0 0 0 0 0 0
0 0 0 0 0 0 0 0 0 0 0 0 0 0 0 0 0 0 0 0 0 0 0 0 0 0 0 0 0 0 0 0 0 0 0 0 0 0 0 0 0 0 0
Wind_Speed
5 5 6 6 6 6 6 6 5 4 3 1 1 1 2 1 1 2 2 2 2 2 3 2 3 2 3 3 3 3 4 3 2 2 4 4 5 5 4 4 4 6 6
6 6 7 7 7 7 6 6 5 4 2 1 1 1 1 1 1 1 1 1 2 2 2 3 2 3 3 3 3 2 1 2 0 0 1 2 3 3 4 4 4 5 4
7 8 9 8 8 7 7 5 5 4 3 2 2 2 2 2 2 2 1 1 2 2 2 2 2 2 2 2 2 1 1 1 1 1 2 0 1 2 3 4 4 5 4
7 8 9 9 9 8 7 7 6 5 3 3 3 3 2 1 1 1 1 2 2 2 2 2 2 2 2 2 2 1 1 0 1 1 1 3 2 0 2 3 4 4 4
8 9 9 9 8 8 7 6 6 5 4 3 3 3 2 1 1 1 2 2 2 2 2 2 2 2 2 2 2 2 1 0 1 0 1 2 1 1 0 2 3 3 3
8 9 9 8 8 7 7 6 6 5 4 4 4 4 3 2 2 2 2 2 2 2 2 2 2 2 2 2 2 2 2 1 2 1 1 0 1 1 0 1 2 2 3
8 9 10 9 9 8 8 7 7 6 6 5 5 4 4 3 3 2 3 2 2 2 2 2 2 2 2 2 2 2 2 2 2 2 2 2 2 1 0 1 1 2 2
8 9 9 9 9 9 8 8 7 6 6 6 5 4 4 3 2 2 2 2 2 2 2 2 2 3 2 2 2 1 2 2 2 2 2 2 2 1 1 1 0 1 2
7 8 9 9 9 9 9 8 7 6 6 6 6 5 4 4 3 3 3 2 2 2 3 3 3 3 3 2 2 1 2 2 1 2 2 2 2 1 1 1 2 2 0
7 8 8 8 8 8 8 8 7 6 6 6 5 4 4 4 4 3 3 3 3 3 4 4 4 4 3 3 2 1 1 2 2 1 2 1 1 1 1 0 1 2 2
6 7 7 7 7 7 7 7 7 6 6 6 5 5 5 4 4 4 3 4 4 4 4 4 4 3 3 3 3 2 2 1 2 2 2 2 1 1 1 0 0 1 1
5 6 7 7 7 7 7 7 7 7 6 6 6 5 5 5 5 4 4 5 5 4 4 4 4 3 3 3 3 2 2 1 1 1 1 2 2 1 0 0 0 0 0
5 6 6 6 7 7 7 7 7 7 7 6 6 5 5 6 5 5 4 4 5 5 4 4 4 4 3 3 3 3 2 2 2 1 1 1 2 2 1 1 1 0 1
6 6 6 6 6 7 7 7 7 7 6 6 6 5 5 5 5 5 4 5 5 5 5 4 4 4 3 3 3 3 3 2 2 1 1 1 2 1 1 2 2 1 1
6 6 6 6 7 7 7 7 7 7 7 7 6 6 5 5 5 5 5 5 4 5 4 4 4 4 3 3 3 3 3 3 2 2 1 1 1 2 1 1 1 2 2
4 5 6 6 7 7 7 7 7 7 7 7 6 5 5 5 5 5 5 5 4 4 4 4 4 4 3 3 2 3 4 3 3 2 2 2 3 3 3 1 2 3 3
3 4 5 6 6 6 7 7 7 7 7 7 6 6 6 5 5 5 4 4 5 4 4 5 5 5 4 5 5 5 4 3 3 3 2 2 2 3 3 5 6 4 3
3 4 4 5 5 6 6 6 7 7 7 7 6 6 6 6 5 5 5 5 4 4 4 4 5 4 4 6 5 5 5 4 3 3 3 3 3 2 2 2 2 2 2
3 3 3 4 5 5 6 7 7 7 7 6 6 6 6 6 6 6 5 5 4 4 4 4 5 5 5 6 6 5 4 3 4 3 3 3 3 2 2 4 3 3 2
2 2 3 4 5 5 6 7 7 7 6 6 6 6 6 6 6 6 5 4 4 4 4 4 4 5 4 6 6 6 3 3 3 3 3 3 3 2 4 5 4 4 3
2 2 3 3 4 5 6 6 6 6 6 5 5 5 5 6 5 5 5 5 4 4 4 4 4 4 4 6 7 6 4 3 3 3 3 2 4 4 4 6 4 3 3
2 3 3 3 3 5 6 6 5 4 4 5 5 5 5 5 4 5 4 5 4 4 4 4 4 3 4 3 5 6 5 4 4 3 3 1 4 4 4 4 2 2 4
2 3 3 3 4 4 4 5 4 4 5 5 5 5 5 5 5 5 5 4 4 4 4 3 3 3 3 4 5 6 6 5 4 2 0 0 3 4 4 5 5 5 5
2 3 3 4 4 3 3 2 3 4 5 5 5 5 5 5 5 4 4 4 4 4 4 4 4 3 3 3 3 3 4 4 4 2 2 3 3 3 2 4 5 5 3
2 3 3 3 3 3 3 2 3 4 4 4 4 4 4 4 4 4 3 4 4 3 4 4 4 3 4 2 1 2 3 3 2 2 2 3 3 3 3 3 3 3 3
3 3 3 3 3 3 3 3 3 4 4 4 4 3 4 4 4 4 3 1 2 1 2 2 2 2 1 2 3 3 2 2 3 3 3 4 4 4 3 3 3 4 4
Wind_Direction
169 160 162 166 165 166 167 158 157 152 144 139 155 129 113 108 86 71 66 63 68 82 88 93 102 105 103 109 113 112 110 104 110 123 111 95 75 67 65 54 55 59 51
171 163 168 168 170 167 169 164 166 166 159 148 142 140 115 112 82 85 98 80 82 84 90 93 104 110 109 117 111 114 112 106 113 221 171 149 125 84 68 65 55 57 57
187 176 178 175 174 173 174 175 180 172 167 162 157 157 137 153 140 130 104 77 75 76 81 89 107 111 121 116 114 132 153 132 113 2 320 289 94 116 93 68 67 61 55
197 184 181 183 181 179 183 186 184 183 176 181 195 193 189 153 124 121 119 123 101 87 83 91 97 108 103 115 124 107 113 99 126 115 18 12 46 212 129 116 84 68 56
195 189 187 187 183 178 184 191 184 185 183 191 192 211 201 161 127 124 131 130 104 95 100 93 98 102 109 106 100 100 73 57 30 67 109 97 102 306 52 119 118 104 77
187 186 183 180 178 176 182 186 185 185 188 197 199 205 192 183 169 166 148 146 129 125 117 113 116 114 109 109 99 100 89 51 53 40 74 82 72 75 77 123 128 107 90
181 181 179 180 180 181 184 186 189 189 191 199 203 202 201 203 196 189 164 165 153 145 135 139 137 116 103 98 102 103 90 100 83 53 58 57 42 28 31 125 118 117 121
181 181 179 181 182 184 186 189 189 191 192 200 204 203 197 204 203 198 189 184 168 153 147 149 133 120 120 123 116 107 95 92 99 82 74 79 61 35 35 19 114 156 135
179 179 178 182 183 184 187 190 188 191 193 198 201 200 198 198 199 198 189 182 177 159 154 151 143 132 132 134 135 117 107 97 88 94 98 88 82 64 42 15 308 304 247
176 176 178 183 184 185 186 188 192 196 195 196 195 194 199 197 202 202 189 183 178 168 166 164 159 153 149 144 137 122 100 118 105 97 104 96 93 81 83 19 329 322 322
173 175 176 179 181 182 184 186 189 195 193 193 191 191 193 195 196 198 196 191 182 177 175 172 171 162 158 155 151 161 156 150 139 147 141 131 103 119 130 140 38 4 346
166 171 173 174 177 183 187 188 189 189 189 192 190 191 187 193 198 193 193 189 185 185 184 173 174 168 174 175 169 171 175 172 171 163 166 159 147 159 137 176 157 61 347
160 166 170 178 179 182 186 188 189 189 183 184 189 189 190 196 197 197 191 189 186 182 182 183 183 183 188 186 187 191 192 191 203 210 209 198 184 183 166 198 201 163 144
165 165 170 177 181 184 186 186 185 185 182 180 187 191 192 191 193 192 191 191 190 188 186 187 190 194 199 198 194 197 202 201 203 211 220 229 224 228 205 197 199 197 191
177 176 178 176 178 182 186 186 185 184 182 183 187 189 185 178 182 178 188 185 185 195 192 190 192 195 206 215 208 200 206 209 200 197 203 203 24 9 325 280 228 212 217
185 184 184 180 181 182 184 181 182 183 182 183 184 179 177 172 177 180 182 178 185 195 193 198 197 196 199 162 204 238 213 210 204 205 203 179 181 166 182 223 286 291 263
179 181 186 185 186 184 182 179 181 179 183 184 178 175 175 173 178 177 172 175 186 192 199 202 200 201 175 164 188 224 234 223 225 226 218 208 193 203 195 180 194 210 243
183 184 182 182 185 182 179 177 174 177 182 182 178 177 179 176 175 176 178 186 190 187 197 199 196 195 173 166 183 206 228 221 220 229 231 226 226 223 238 230 223 227 217
196 189 189 184 181 174 173 173 174 177 179 182 183 180 182 178 178 181 186 188 190 189 195 193 195 198 186 174 186 207 216 218 222 230 237 243 239 156 208 235 230 228 219
176 169 172 175 174 169 169 174 174 177 184 187 188 181 180 179 184 188 188 183 184 192 193 190 200 204 200 164 182 212 220 224 225 224 228 225 239 200 219 236 234 235 239
145 155 160 162 167 167 171 178 179 185 186 183 184 180 180 186 186 185 185 182 182 188 197 197 202 207 204 170 184 211 231 231 237 234 233 207 176 206 233 253 254 251 261
147 157 158 156 159 167 175 181 185 185 177 177 182 185 186 184 182 180 182 185 183 190 198 206 203 206 197 194 189 206 231 258 245 248 246 190 163 198 223 236 210 214 240
155 159 161 157 154 163 181 184 172 172 176 180 184 188 189 186 185 182 181 185 189 201 206 208 212 210 201 184 184 199 215 233 245 252 1 159 181 199 210 196 204 221 231
166 171 170 160 153 155 166 166 158 171 183 184 182 184 188 187 188 186 193 195 197 204 210 212 216 216 205 196 181 191 198 197 215 222 170 182 213 227 218 200 213 230 238
174 182 181 174 165 161 164 157 156 179 186 185 182 187 188 185 188 187 202 210 208 214 220 217 216 215 220 197 193 219 211 209 205 205 214 221 219 222 222 226 228 226 222
180 184 184 188 182 173 172 166 169 188 192 188 185 186 187 186 189 186 184 183 240 191 233 255 251 229 205 133 171 205 214 165 161 197 221 227 232 236 238 238 235 233 236